Location: Observatory
(49.4490°N, 2.6360°W)
Time: 01:21:48
(UTC+01:00)

DIWATA 2B (PO-101) - Pass Details

Date: 19 April 2025
Orbit: 567 x 578 km, 98.1° (Epoch: 16 May)

Event Time Altitude Azimuth Distance (km) Brightness Sun altitude
Rises 05:01:42 0° 149° (SSE) 2,766 ? -10.9°
Reaches altitude 10° 05:03:53 10° 143° (SE) 1,871 ? -10.6°
Maximum altitude 05:07:46 46° 70° (ENE) 771 ? -10.1°
Drops below altitude 10° 05:11:40 10° 357° (N) 1,881 ? -9.5°
Sets 05:13:52 0° 351° (N) 2,782 ? -9.2°
